This demonstration page uses our WeatherBlox Daily Observations layout. Learn more.

Left ArrowRight Arrow

34.16533, -84.80231

Hourly Observations for February 28, 2015

Temp ( °F °C ) Dew Point ( °F °C ) Humidity (%) Winds ( mph kmh ) Pressure ( in mb ) Visibility ( mi km ) Precip ( " mm )
12:53 am 00:53 Partly Cloudy 32 0 19 -7.2 59 59 VRB 3 6 30.48 1032 10 16 0.00 0.00
1:53 am 01:53 Mostly Clear 31 -0.6 18 -7.8 59 59 N 5 7 30.49 1033 10 16 0.00 0.00
2:53 am 02:53 Mostly Cloudy 30 -1.1 17 -8.3 58 58 N 5 7 30.50 1033 10 16 0.00 0.00
3:53 am 03:53 Mostly Cloudy 29 -1.7 17 -8.3 61 61 NNE 5 7 30.49 1033 10 16 0.00 0.00
4:53 am 04:53 Mostly Cloudy 30 -1.1 19 -7.2 64 64 Calm 30.51 1033 10 16 0.00 0.00
5:53 am 05:53 Mostly Clear 30 -1.1 19 -7.2 64 64 Calm 30.52 1034 10 16 0.00 0.00
6:53 am 06:53 Cloudy 30 -1.1 20 -6.7 66 66 Calm 30.55 1035 10 16 0.00 0.00
7:53 am 07:53 Cloudy 32 0 23 -5 69 69 VRB 3 6 30.56 1035 10 16 0.00 0.00
8:53 am 08:53 Cloudy 38 3.3 26 -3.3 62 62 VRB 6 9 30.58 1035 10 16 0.00 0.00
9:53 am 09:53 Sunny 40 4.4 27 -2.8 60 60 E 8 13 30.59 1036 10 16 0.00 0.00
10:53 am 10:53 Mostly Cloudy 42 5.6 27 -2.8 55 55 ESE 10 17 30.60 1036 10 16 0.00 0.00
11:53 am 11:53 Mostly Sunny 45 7.2 28 -2.2 52 52 ESE 9 15 30.58 1036 10 16 0.00 0.00
12:53 pm 12:53 Mostly Sunny 48 8.9 28 -2.2 46 46 E 12 19 30.55 1035 10 16 0.00 0.00
1:53 pm 13:53 Sunny 51 10.6 29 -1.7 43 43 E 12 19 30.51 1033 10 16 0.00 0.00
2:53 pm 14:53 Sunny 52 11.1 28 -2.2 40 40 E 12 19 30.49 1033 10 16 0.00 0.00
3:53 pm 15:53 Sunny 53 11.7 28 -2.2 38 38 E 12 19 30.46 1032 10 16 0.00 0.00
4:53 pm 16:53 Sunny 54 12.2 28 -2.2 37 37 E 8 13 30.46 1032 10 16 0.00 0.00
5:53 pm 17:53 Sunny 52 11.1 27 -2.8 38 38 E 9 15 30.47 1032 10 16 0.00 0.00
6:53 pm 18:53 Partly Cloudy 49 9.4 27 -2.8 43 43 E 5 7 30.48 1032 10 16 0.00 0.00
7:53 pm 19:53 Mostly Clear 47 8.3 26 -3.3 44 44 E 8 13 30.49 1033 10 16 0.00 0.00
8:53 pm 20:53 Clear 46 7.8 26 -3.3 46 46 E 9 15 30.51 1033 10 16 0.00 0.00
9:53 pm 21:53 Cloudy 45 7.2 25 -3.9 46 46 E 9 15 30.53 1034 10 16 0.00 0.00
10:53 pm 22:53 Cloudy 45 7.2 26 -3.3 48 48 ESE 9 15 30.54 1034 10 16 0.00 0.00
11:53 pm 23:53 Cloudy 45 7.2 27 -2.8 49 49 E 8 13 30.54 1034 10 16 0.00 0.00

Powered by AerisWeather